Time,TemperatureF,DewpointF,PressureIn,WindDirection,WindDirectionDegrees,WindSpeedMPH,WindSpeedGustMPH,Humidity,HourlyPrecipIn,Conditions,Clouds,dailyrainin,SoftwareType,DateUTC
2013-01-13 00:00:00,69.7,67.0,29.86,SE,137,2.0,11.0,92,0.00,,,0.00,weatherlink.com 1.10,2013-01-13 06:00:00,
2013-01-13 00:15:00,69.6,67.0,29.86,SSE,160,3.0,12.0,92,0.00,,,0.00,weatherlink.com 1.10,2013-01-13 06:15:00,
2013-01-13 00:30:00,69.6,67.0,29.85,SSE,162,4.0,13.0,92,0.00,,,0.00,weatherlink.com 1.10,2013-01-13 06:30:00,
2013-01-13 00:45:00,69.8,67.0,29.85,SW,221,8.0,12.0,92,0.00,,,0.00,weatherlink.com 1.10,2013-01-13 06:45:00,
2013-01-13 01:00:00,69.8,67.0,29.85,SE,128,3.0,8.0,92,0.00,,,0.00,weatherlink.com 1.10,2013-01-13 07:00:00,
2013-01-13 01:15:00,69.8,67.0,29.83,SE,126,5.0,10.0,92,0.00,,,0.00,weatherlink.com 1.10,2013-01-13 07:15:00,
2013-01-13 01:30:00,69.8,67.0,29.83,South,172,4.0,11.0,91,0.00,,,0.00,weatherlink.com 1.10,2013-01-13 07:30:00,
2013-01-13 01:45:00,69.7,67.0,29.84,SE,129,2.0,11.0,91,0.00,,,0.00,weatherlink.com 1.10,2013-01-13 07:45:00,
2013-01-13 02:00:00,69.8,67.0,29.84,SSW,195,3.0,10.0,91,0.00,,,0.00,weatherlink.com 1.10,2013-01-13 08:00:00,
2013-01-13 02:15:00,69.8,67.0,29.84,South,178,5.0,13.0,91,0.00,,,0.00,weatherlink.com 1.10,2013-01-13 08:15:00,
2013-01-13 02:30:00,69.9,67.0,29.83,SSE,151,4.0,10.0,91,0.00,,,0.00,weatherlink.com 1.10,2013-01-13 08:30:00,
2013-01-13 02:45:00,69.9,67.0,29.81,South,173,5.0,13.0,91,0.00,,,0.00,weatherlink.com 1.10,2013-01-13 08:45:00,
2013-01-13 03:00:00,69.8,67.0,29.79,SSE,161,7.0,17.0,91,0.00,,,0.00,weatherlink.com 1.10,2013-01-13 09:00:00,
2013-01-13 03:15:00,69.8,67.0,29.80,SSW,206,5.0,14.0,91,0.00,,,0.00,weatherlink.com 1.10,2013-01-13 09:15:00,
2013-01-13 03:30:00,69.8,67.0,29.79,SE,139,6.0,16.0,91,0.00,,,0.00,weatherlink.com 1.10,2013-01-13 09:30:00,
2013-01-13 03:46:00,69.8,67.0,29.80,South,169,3.0,14.0,90,0.00,,,0.00,weatherlink.com 1.10,2013-01-13 09:46:00,
2013-01-13 04:01:00,69.8,67.0,29.81,SW,227,5.0,15.0,90,0.00,,,0.00,weatherlink.com 1.10,2013-01-13 10:01:00,
2013-01-13 04:16:00,69.9,67.0,29.81,SSE,155,4.0,11.0,90,0.00,,,0.00,weatherlink.com 1.10,2013-01-13 10:16:00,
2013-01-13 04:31:00,69.8,67.0,29.81,South,176,2.0,11.0,89,0.00,,,0.00,weatherlink.com 1.10,2013-01-13 10:31:00,
2013-01-13 04:46:00,69.6,67.0,29.82,SSE,154,1.0,7.0,90,0.00,,,0.00,weatherlink.com 1.10,2013-01-13 10:46:00,
2013-01-13 05:01:00,69.4,66.0,29.82,SSW,199,1.0,6.0,90,0.00,,,0.00,weatherlink.com 1.10,2013-01-13 11:01:00,
2013-01-13 05:16:00,69.4,66.0,29.82,South,191,0.0,7.0,90,0.00,,,0.00,weatherlink.com 1.10,2013-01-13 11:16:00,
2013-01-13 05:31:00,69.4,66.0,29.84,South,179,2.0,7.0,90,0.00,,,0.00,weatherlink.com 1.10,2013-01-13 11:31:00,
2013-01-13 05:46:00,69.4,66.0,29.84,SSW,207,2.0,4.0,90,0.00,,,0.00,weatherlink.com 1.10,2013-01-13 11:46:00,
2013-01-13 06:01:00,69.4,66.0,29.85,SSW,192,0.0,4.0,90,0.00,,,0.00,weatherlink.com 1.10,2013-01-13 12:01:00,
2013-01-13 06:16:00,69.3,66.0,29.86,SSW,193,0.0,4.0,90,0.00,,,0.00,weatherlink.com 1.10,2013-01-13 12:16:00,
2013-01-13 06:31:00,69.2,66.0,29.86,SSE,165,2.0,4.0,90,0.00,,,0.00,weatherlink.com 1.10,2013-01-13 12:31:00,
2013-01-13 06:46:00,69.1,66.0,29.86,South,183,1.0,4.0,90,0.00,,,0.00,weatherlink.com 1.10,2013-01-13 12:46:00,
2013-01-13 07:01:00,69.0,66.0,29.86,SSE,160,2.0,5.0,91,0.00,,,0.00,weatherlink.com 1.10,2013-01-13 13:01:00,
2013-01-13 07:16:00,69.0,66.0,29.86,SSE,167,1.0,4.0,90,0.00,,,0.00,weatherlink.com 1.10,2013-01-13 13:16:00,
2013-01-13 07:31:00,69.1,66.0,29.87,SSE,165,1.0,6.0,91,0.00,,,0.00,weatherlink.com 1.10,2013-01-13 13:31:00,
2013-01-13 07:46:00,69.1,66.0,29.88,SSE,152,2.0,4.0,91,0.00,,,0.00,weatherlink.com 1.10,2013-01-13 13:46:00,
2013-01-13 08:01:00,69.3,67.0,29.88,SE,134,1.0,6.0,91,0.00,,,0.00,weatherlink.com 1.10,2013-01-13 14:01:00,
2013-01-13 08:16:00,69.5,67.0,29.88,South,170,3.0,5.0,91,0.00,,,0.00,weatherlink.com 1.10,2013-01-13 14:16:00,
2013-01-13 08:31:00,69.9,67.0,29.88,SSE,150,3.0,7.0,91,0.00,,,0.00,weatherlink.com 1.10,2013-01-13 14:31:00,
2013-01-13 08:46:00,70.5,68.0,29.88,ESE,117,2.0,7.0,90,0.00,,,0.00,weatherlink.com 1.10,2013-01-13 14:46:00,
2013-01-13 09:01:00,71.0,68.0,29.88,SSE,167,2.0,7.0,90,0.00,,,0.00,weatherlink.com 1.10,2013-01-13 15:01:00,
2013-01-13 09:16:00,71.5,68.0,29.89,SW,214,2.0,7.0,89,0.00,,,0.00,weatherlink.com 1.10,2013-01-13 15:16:00,
2013-01-13 09:46:00,72.1,68.0,29.89,South,188,3.0,8.0,88,0.00,,,0.00,weatherlink.com 1.10,2013-01-13 15:46:00,
2013-01-13 10:01:00,72.4,69.0,29.89,SE,126,2.0,9.0,88,0.00,,,0.00,weatherlink.com 1.10,2013-01-13 16:01:00,
2013-01-13 10:16:00,72.6,69.0,29.89,SSW,204,5.0,10.0,87,0.00,,,0.00,weatherlink.com 1.10,2013-01-13 16:16:00,
2013-01-13 10:31:00,72.7,69.0,29.89,South,174,3.0,8.0,87,0.00,,,0.00,weatherlink.com 1.10,2013-01-13 16:31:00,
2013-01-13 10:46:00,72.4,69.0,29.88,South,174,4.0,6.0,88,0.00,,,0.00,weatherlink.com 1.10,2013-01-13 16:46:00,
2013-01-13 11:01:00,71.4,69.0,29.88,South,177,3.0,5.0,91,0.04,,,0.04,weatherlink.com 1.10,2013-01-13 17:01:00,
2013-01-13 11:16:00,70.8,69.0,29.86,SE,142,1.0,5.0,93,0.06,,,0.06,weatherlink.com 1.10,2013-01-13 17:16:00,
2013-01-13 11:31:00,71.2,69.0,29.85,South,184,5.0,7.0,93,0.06,,,0.06,weatherlink.com 1.10,2013-01-13 17:31:00,
2013-01-13 11:46:00,71.5,69.0,29.84,SSE,153,2.0,8.0,92,0.06,,,0.06,weatherlink.com 1.10,2013-01-13 17:46:00,
2013-01-13 12:01:00,71.7,70.0,29.83,SSE,163,4.0,8.0,93,0.02,,,0.06,weatherlink.com 1.10,2013-01-13 18:01:00,
2013-01-13 12:16:00,72.0,70.0,29.83,SSE,167,4.0,7.0,92,0.00,,,0.06,weatherlink.com 1.10,2013-01-13 18:16:00,
2013-01-13 12:31:00,72.4,70.0,29.82,ESE,120,3.0,8.0,91,0.00,,,0.06,weatherlink.com 1.10,2013-01-13 18:31:00,
2013-01-13 12:46:00,72.8,70.0,29.81,SSW,193,3.0,11.0,90,0.00,,,0.06,weatherlink.com 1.10,2013-01-13 18:46:00,
2013-01-13 13:01:00,72.7,70.0,29.80,ESE,119,3.0,9.0,90,0.00,,,0.06,weatherlink.com 1.10,2013-01-13 19:01:00,
2013-01-13 13:16:00,72.6,70.0,29.80,SE,134,1.0,7.0,91,0.00,,,0.06,weatherlink.com 1.10,2013-01-13 19:16:00,
2013-01-13 13:31:00,72.5,70.0,29.80,South,170,3.0,6.0,91,0.00,,,0.06,weatherlink.com 1.10,2013-01-13 19:31:00,
2013-01-13 13:46:00,72.4,70.0,29.81,SSW,198,2.0,8.0,91,0.00,,,0.06,weatherlink.com 1.10,2013-01-13 19:46:00,
2013-01-13 14:01:00,70.3,64.0,29.85,WNW,297,6.0,10.0,81,0.00,,,0.06,weatherlink.com 1.10,2013-01-13 20:01:00,
2013-01-13 14:16:00,58.2,55.0,29.86,WNW,297,6.0,14.0,90,0.06,,,0.12,weatherlink.com 1.10,2013-01-13 20:16:00,
2013-01-13 14:32:00,55.7,54.0,29.87,NW,316,2.0,12.0,93,0.27,,,0.33,weatherlink.com 1.10,2013-01-13 20:32:00,
2013-01-13 14:47:00,54.5,53.0,29.88,North,11,3.0,9.0,94,0.45,,,0.51,weatherlink.com 1.10,2013-01-13 20:47:00,
2013-01-13 15:02:00,53.3,52.0,29.89,North,355,9.0,9.0,94,0.53,,,0.59,weatherlink.com 1.10,2013-01-13 21:02:00,
2013-01-13 15:17:00,51.8,50.0,29.91,NE,36,4.0,6.0,94,0.50,,,0.62,weatherlink.com 1.10,2013-01-13 21:17:00,
2013-01-13 15:32:00,50.9,49.0,29.92,NNW,340,1.0,8.0,94,0.27,,,0.62,weatherlink.com 1.10,2013-01-13 21:32:00,
2013-01-13 15:47:00,50.2,49.0,29.93,NNW,343,0.0,6.0,94,0.11,,,0.62,weatherlink.com 1.10,2013-01-13 21:47:00,
2013-01-13 16:02:00,49.8,49.0,29.94,ENE,65,1.0,8.0,95,0.04,,,0.63,weatherlink.com 1.10,2013-01-13 22:02:00,
2013-01-13 16:17:00,49.3,48.0,29.97,WNW,290,1.0,7.0,95,0.03,,,0.65,weatherlink.com 1.10,2013-01-13 22:17:00,
2013-01-13 16:32:00,49.0,48.0,29.97,WNW,292,2.0,7.0,95,0.03,,,0.65,weatherlink.com 1.10,2013-01-13 22:32:00,
2013-01-13 16:47:00,48.7,47.0,29.97,WNW,293,2.0,5.0,95,0.04,,,0.66,weatherlink.com 1.10,2013-01-13 22:47:00,
2013-01-13 17:02:00,48.4,47.0,29.97,NW,316,1.0,7.0,95,0.04,,,0.67,weatherlink.com 1.10,2013-01-13 23:02:00,
2013-01-13 17:17:00,48.0,47.0,29.99,NNE,12,0.0,8.0,95,0.02,,,0.67,weatherlink.com 1.10,2013-01-13 23:17:00,
2013-01-13 17:32:00,47.9,47.0,30.00,North,9,0.0,6.0,95,0.02,,,0.67,weatherlink.com 1.10,2013-01-13 23:32:00,
2013-01-13 17:47:00,47.9,47.0,29.99,NE,47,1.0,7.0,95,0.01,,,0.67,weatherlink.com 1.10,2013-01-13 23:47:00,
2013-01-13 18:02:00,48.0,47.0,30.00,ESE,115,3.0,7.0,95,0.00,,,0.67,weatherlink.com 1.10,2013-01-14 00:02:00,
2013-01-13 18:17:00,47.9,47.0,30.01,NNE,15,0.0,5.0,95,0.00,,,0.67,weatherlink.com 1.10,2013-01-14 00:17:00,
2013-01-13 18:32:00,47.5,46.0,30.04,NNW,345,9.0,12.0,94,0.00,,,0.67,weatherlink.com 1.10,2013-01-14 00:32:00,
2013-01-13 18:47:00,47.2,46.0,30.03,NNE,18,1.0,4.0,94,0.01,,,0.68,weatherlink.com 1.10,2013-01-14 00:47:00,
2013-01-13 19:02:00,46.9,46.0,30.03,NE,46,1.0,13.0,95,0.02,,,0.69,weatherlink.com 1.10,2013-01-14 01:02:00,
2013-01-13 19:17:00,46.7,45.0,30.03,ESE,122,1.0,5.0,95,0.03,,,0.70,weatherlink.com 1.10,2013-01-14 01:17:00,
2013-01-13 19:48:00,46.1,45.0,30.04,ENE,59,1.0,7.0,95,0.02,,,0.70,weatherlink.com 1.10,2013-01-14 01:48:00,
2013-01-13 20:03:00,45.9,45.0,30.04,NNW,335,5.0,9.0,95,0.01,,,0.70,weatherlink.com 1.10,2013-01-14 02:03:00,
2013-01-13 20:18:00,45.5,44.0,30.04,West,267,1.0,11.0,94,0.00,,,0.70,weatherlink.com 1.10,2013-01-14 02:18:00,
2013-01-13 20:33:00,45.1,44.0,30.03,NW,319,7.0,7.0,94,0.00,,,0.70,weatherlink.com 1.10,2013-01-14 02:33:00,
2013-01-13 20:48:00,44.9,44.0,30.04,ESE,103,1.0,5.0,95,0.00,,,0.70,weatherlink.com 1.10,2013-01-14 02:48:00,
2013-01-13 21:03:00,44.6,43.0,30.04,NE,39,0.0,6.0,95,0.00,,,0.70,weatherlink.com 1.10,2013-01-14 03:03:00,
2013-01-13 21:18:00,44.2,43.0,30.05,NNE,26,1.0,6.0,95,0.00,,,0.70,weatherlink.com 1.10,2013-01-14 03:18:00,
2013-01-13 21:33:00,44.0,43.0,30.05,ENE,67,1.0,9.0,95,0.00,,,0.70,weatherlink.com 1.10,2013-01-14 03:33:00,
2013-01-13 21:48:00,43.7,42.0,30.06,WNW,300,1.0,8.0,95,0.00,,,0.70,weatherlink.com 1.10,2013-01-14 03:48:00,
2013-01-13 22:03:00,43.7,42.0,30.07,WNW,288,1.0,6.0,95,0.00,,,0.70,weatherlink.com 1.10,2013-01-14 04:03:00,
2013-01-13 22:18:00,43.5,42.0,30.06,WNW,300,1.0,6.0,95,0.00,,,0.70,weatherlink.com 1.10,2013-01-14 04:18:00,
2013-01-13 22:33:00,43.4,42.0,30.07,ENE,64,2.0,7.0,95,0.00,,,0.70,weatherlink.com 1.10,2013-01-14 04:33:00,
2013-01-13 22:48:00,43.2,42.0,30.07,NE,39,3.0,4.0,95,0.00,,,0.70,weatherlink.com 1.10,2013-01-14 04:48:00,
2013-01-13 23:03:00,43.1,42.0,30.07,NNW,345,2.0,3.0,95,0.00,,,0.70,weatherlink.com 1.10,2013-01-14 05:03:00,
2013-01-13 23:18:00,42.8,41.0,30.07,NNW,348,1.0,5.0,94,0.00,,,0.70,weatherlink.com 1.10,2013-01-14 05:18:00,
2013-01-13 23:33:00,42.8,41.0,30.09,WNW,298,1.0,6.0,94,0.00,,,0.70,weatherlink.com 1.10,2013-01-14 05:33:00,
2013-01-13 23:48:00,42.8,41.0,30.09,North,11,3.0,6.0,94,0.01,,,0.71,weatherlink.com 1.10,2013-01-14 05:48:00,